Akron, CO

7:10 AM MST on February 24, 2018 (GMT -0700)
Akron-Washington County

Weather History for KAKO - August, 2013

Change the Weather History Date:

Saturday, August 31, 2013

  Actual Average Record
Temperature  
Mean Temperature 79 °F 69 °F  
Max Temperature 95 °F 83 °F 98 °F (1948)
Min Temperature 63 °F 55 °F 39 °F (1944)
Degree Days  
Heating Degree Days 0    
Month to date heating degree days 2  
Cooling Degree Days 14    
Month to date cooling degree days 269  
Growing Degree Days 28 (Base 50)    
Moisture  
Dew Point 53 °F    
Average Humidity 52    
Maximum Humidity 84    
Minimum Humidity 19    
Precipitation  
Precipitation T in 0.06 in 0.85 in (1986)
Month to date precipitation 2.41 2.30  
Year to date precipitation 11.42 13.49  
Sea Level Pressure  
Sea Level Pressure 29.89 in    
Wind  
Wind Speed 11 mph (West)    
Max Wind Speed 28 mph    
Max Gust Speed 32 mph    
Visibility 10 miles    
Events Thunderstorm    
T = Trace of Precipitation, MM = Missing Value Source: NWS Daily Summary

Daily Weather History Graph

Daily Weather History Graph

Search for Another Location

Airport or City:

Trip Planner

Search our weather history database for the weather conditions in past years. The results will help you decide how hot, cold, wet, or windy it might be!

Date:

Astronomy

Aug. 31, 2013 Rise Set
Actual Time 6:19 AM MDT 7:25 PM MDT
Civil Twilight 5:51 AM MDT 7:53 PM MDT
Nautical Twilight 5:18 AM MDT 8:26 PM MDT
Astronomical Twilight 4:43 AM MDT 9:01 PM MDT
Moon 1:50 AM MDT (8/31) 4:25 PM MDT (8/31)
Length of Visible Light 14h 01m
Length of Day
13h 05m
Waning Crescent, 20% of the Moon is Illuminated
Aug 31
Waning Crescent
Sep 5
New
Sep 12
First Quarter
Sep 19
Full
Sep 26
Last Quarter

Hourly Weather History & Observations

Time (MDT) Temp. Heat Index Dew Point Humidity Pressure Visibility Wind Dir Wind Speed Gust Speed Precip Events Conditions
12:53 AM 69.1 °F - 57.0 °F 65% 29.95 in 10.0 mi ESE 5.8 mph - N/A   Scattered Clouds
1:53 AM 66.9 °F - 57.0 °F 70% 29.95 in 10.0 mi ESE 8.1 mph - 0.00 in   Clear
2:53 AM 64.0 °F - 57.0 °F 78% 29.94 in 10.0 mi SSE 12.7 mph - N/A   Clear
3:53 AM 64.0 °F - 57.0 °F 78% 29.91 in 10.0 mi SSE 12.7 mph 21.9 mph N/A   Clear
4:53 AM 64.0 °F - 57.0 °F 78% 29.88 in 10.0 mi South 10.4 mph - N/A   Clear
5:53 AM 64.0 °F - 57.9 °F 80% 29.88 in 10.0 mi South 11.5 mph - N/A   Clear
6:53 AM 64.9 °F - 59.0 °F 81% 29.91 in 10.0 mi SSW 10.4 mph - N/A   Clear
7:53 AM 71.1 °F - 59.0 °F 66% 29.92 in 10.0 mi SSW 12.7 mph - N/A   Clear
8:53 AM 75.9 °F - 59.0 °F 56% 29.91 in 10.0 mi SW 12.7 mph - N/A   Clear
9:53 AM 81.0 °F 81.1 °F 57.9 °F 45% 29.90 in 10.0 mi SW 15.0 mph - N/A   Clear
10:53 AM 86.0 °F 84.5 °F 55.0 °F 35% 29.89 in 10.0 mi West 15.0 mph 20.7 mph N/A   Clear
11:53 AM 89.1 °F - 48.0 °F 24% 29.87 in 10.0 mi West 13.8 mph 24.2 mph N/A   Clear
12:53 PM 90.0 °F - 45.0 °F 21% 29.86 in 10.0 mi West 11.5 mph 17.3 mph N/A   Clear
1:53 PM 91.9 °F - 46.0 °F 21% 29.84 in 10.0 mi WNW 15.0 mph - N/A   Clear
2:53 PM 93.9 °F - 45.0 °F 18% 29.82 in 10.0 mi WNW 10.4 mph - N/A   Clear
3:53 PM 93.0 °F - 45.0 °F 19% 29.81 in 10.0 mi Variable 6.9 mph - N/A   Clear
4:53 PM 91.0 °F - 46.0 °F 21% 29.80 in 10.0 mi NW 9.2 mph - N/A   Clear
5:53 PM 89.1 °F - 46.0 °F 22% 29.81 in 10.0 mi WNW 10.4 mph - N/A   Clear
6:53 PM 84.0 °F - 46.9 °F 27% 29.84 in 10.0 mi WNW 18.4 mph - N/A   Scattered Clouds
7:53 PM 79.0 °F - 48.0 °F 34% 29.87 in 10.0 mi NW 12.7 mph - N/A   Mostly Cloudy
8:53 PM 78.1 °F - 52.0 °F 40% 29.88 in 10.0 mi NNW 9.2 mph - N/A   Clear
9:50 PM 77.0 °F - 57.2 °F 50% 30.07 in 10.0 mi NE 20.7 mph 28.8 mph N/A Thunderstorm Partly Cloudy
9:53 PM 75.9 °F - 57.9 °F 54% 29.86 in 10.0 mi NE 24.2 mph 31.1 mph N/A Thunderstorm Scattered Clouds
10:11 PM 75.2 °F - 59.0 °F 57% 30.09 in 10.0 mi NE 17.3 mph 31.1 mph N/A   Mostly Cloudy
10:53 PM 75.0 °F - 57.9 °F 55% 29.87 in 10.0 mi NNE 9.2 mph 17.3 mph N/A   Overcast
11:53 PM 70.0 °F - 57.9 °F 65% 29.90 in 10.0 mi East 3.5 mph - N/A   Clear